Location: G�migny
(47.9646°N, 1.6950°E)
Time: 01:59:18
(UTC+00:00)

YAOGAN 6 - Pass Details

Date: 29 January 2020
Orbit: 465 x 506 km, 97.0° (Epoch: 21 February)

Event Time Altitude Azimuth Distance (km) Brightness Sun altitude
Rises 05:37:38 0° 32° (NNE) 2,528 6.5 -18.0°
Reaches altitude 10° 05:40:45 10° 62° (ENE) 1,636 6.0 -17.5°
Maximum altitude 05:42:20 13° 89° (E) 1,476 6.2 -17.3°
Drops below altitude 10° 05:43:55 10° 116° (ESE) 1,624 6.4 -17.0°
Sets 05:46:58 0° 147° (SSE) 2,489 6.8 -16.5°
